SCP
3 3 4 4 4 4 3 3 4 4 4 5 5 6 6 6 5 5 4 3 2 2 2 1 1 1 1 1 1 1 1 1 1 1 1 1 1 1
4 4 4 5 5 4 4 4 5 6 5 5 6 7 7 6 5 4 3 3 2 2 2 1 1 0 0 0 0 1 1 1 0 1 1 1 1 1
5 5 5 6 6 5 4 5 6 7 7 6 7 8 8 7 6 4 3 3 2 2 2 1 1 0 0 0 0 0 0 0 0 0 0 0 1 1
5 5 6 6 6 5 5 6 7 7 7 7 8 8 9 8 6 4 3 3 3 2 1 1 0 0 0 0 0 0 0 0 0 0 0 0 0 0
6 6 6 6 5 5 6 7 7 8 8 9 9 9 8 7 5 4 4 4 3 2 1 1 1 0 0 0 0 0 0 0 0 0 0 0 0 0
7 6 5 5 5 6 7 8 9 9 9 10 9 9 8 6 5 4 4 4 4 3 2 2 1 1 0 0 0 0 0 0 0 0 0 0 0 0
8 6 5 5 5 6 7 8 9 10 11 11 11 10 8 7 5 4 4 4 5 4 3 2 2 2 1 0 0 0 0 0 0 0 0 0 0 0
8 7 6 5 5 6 6 6 7 9 10 11 11 10 9 8 6 4 3 3 3 3 3 2 2 2 2 1 0 0 0 0 0 0 0 0 0 0
8 7 7 7 7 8 8 8 7 7 8 8 8 8 8 7 5 3 3 3 3 2 2 2 2 3 2 2 1 0 0 0 0 0 0 0 0 0
7 8 8 8 8 9 10 10 9 8 5 4 4 5 5 5 4 3 3 3 3 2 2 2 2 3 2 2 1 0 0 0 0 0 0 0 0 0
5 6 7 7 6 6 7 9 9 7 4 2 2 2 2 2 2 2 2 2 3 3 3 3 3 2 2 1 1 0 0 0 0 0 0 0 0 0
4 4 4 4 4 4 5 6 7 6 4 2 1 1 1 1 1 1 2 2 3 3 3 3 3 2 2 1 1 0 0 0 0 0 0 0 0 0
5 4 3 2 2 2 4 5 5 5 5 3 2 2 2 1 2 2 2 2 3 4 4 3 3 2 1 1 1 1 0 0 0 0 0 0 0 0
7 6 3 2 1 1 2 3 3 4 5 4 3 2 2 1 2 2 2 3 3 4 4 3 2 1 1 1 1 1 1 1 1 1 0 0 0 0
6 4 3 1 0 0 1 1 1 3 4 4 3 2 2 2 2 2 2 2 3 3 3 3 2 1 1 0 0 1 1 1 2 1 1 0 0 0
3 3 3 3 3 3 3 2 2 2 3 4 3 3 2 2 2 2 2 2 2 2 2 2 2 1 1 1 1 1 1 1 2 1 1 1 1 1
3 5 7 8 8 8 7 4 3 3 3 3 4 3 3 2 2 2 2 3 3 2 2 2 2 2 2 2 1 1 1 1 1 1 1 1 1 2
4 6 9 10 10 9 7 5 4 3 3 3 4 4 3 2 2 2 2 2 3 2 2 3 3 3 3 2 2 2 2 2 2 2 1 1 1 1
4 5 7 7 7 5 4 3 3 3 3 3 3 3 2 2 1 2 2 2 2 2 2 2 3 3 3 2 2 2 2 2 2 2 2 1 1 1
2 2 3 3 3 3 2 2 2 2 2 3 2 2 2 1 1 1 1 1 1 1 1 2 2 3 2 2 2 2 1 1 2 2 2 2 1 1
1 1 1 1 1 1 1 1 1 1 2 2 2 2 1 1 1 1 1 1 1 1 1 1 1 2 2 2 2 1 1 1 1 1 1 1 1 1
1 1 1 1 1 1 1 1 1 1 2 2 2 2 1 1 1 1 1 1 1 1 1 1 1 1 1 1 1 1 1 1 1 1 1 1 1 1
1 1 1 1 1 1 1 1 1 1 1 2 2 2 1 1 1 1 1 1 1 1 1 1 1 1 2 2 1 1 1 1 1 1 1 0 0 0
Wind_Speed
2 2 2 3 3 2 2 2 2 2 2 2 1 1 1 2 5 3 2 5 6 6 6 6 5 5 5 5 5 4 4 3 3 3 4 4 5 6
2 2 2 3 3 2 2 2 1 1 2 1 1 1 1 1 4 3 3 5 6 7 7 6 6 6 6 5 5 5 4 3 3 3 3 4 3 4
2 2 2 3 3 3 2 2 1 1 2 2 1 0 1 1 2 2 3 3 4 7 7 7 6 6 6 6 7 6 6 5 4 4 4 4 4 4
2 2 2 2 2 3 3 2 2 2 2 2 2 1 1 1 2 3 3 3 3 6 8 8 7 6 6 7 7 7 6 6 5 4 4 4 4 4
2 2 2 2 3 2 3 3 2 2 1 1 2 1 0 0 1 2 2 1 2 4 7 7 7 7 6 6 7 7 7 6 6 5 5 5 4 4
2 1 1 1 2 3 3 3 3 2 1 1 1 1 1 1 1 1 1 1 1 2 2 4 6 7 7 6 6 7 7 7 7 6 5 5 4 4
1 1 1 1 2 2 2 3 2 2 1 1 1 0 0 0 1 1 1 1 1 1 1 2 3 3 4 5 6 7 6 7 7 7 6 6 6 5
2 1 1 1 1 1 2 3 2 2 2 1 1 1 1 1 1 2 1 1 2 1 1 2 2 2 3 3 6 8 8 7 8 8 7 7 6 6
1 1 2 1 1 1 1 1 1 2 2 1 1 2 2 1 1 2 1 1 2 1 1 2 1 2 2 4 9 10 10 9 8 9 8 7 7 7
2 2 2 1 1 1 1 1 1 2 2 1 1 2 1 1 1 2 3 3 2 2 1 2 2 2 2 2 7 9 9 9 8 8 9 8 8 8
3 2 2 2 2 1 2 2 2 1 1 1 0 2 2 2 2 1 2 2 2 2 1 1 2 1 1 2 3 7 8 8 8 7 8 8 7 7
2 2 2 2 2 2 3 3 3 2 1 1 2 2 3 3 3 2 2 2 2 2 1 1 2 1 1 1 1 2 3 5 6 6 6 7 6 4
2 1 1 0 1 2 3 3 4 3 2 3 2 2 2 2 2 3 2 2 2 2 1 1 1 1 1 1 1 2 3 2 3 3 5 6 6 5
2 1 1 1 1 3 3 4 5 4 3 2 2 2 2 2 2 2 2 2 2 2 2 1 1 1 2 2 2 1 2 2 2 2 3 4 5 6
2 3 3 3 3 3 4 5 4 3 2 2 2 2 2 2 2 2 2 2 2 3 3 3 2 2 2 3 2 2 1 1 2 2 2 2 3 3
1 2 3 5 5 4 3 3 2 2 2 2 2 1 1 1 1 1 1 2 2 2 2 2 3 3 3 3 2 2 2 2 1 1 1 2 2 2
1 1 2 2 1 1 1 1 1 1 2 2 1 1 1 1 0 1 1 2 2 2 2 1 1 1 2 2 2 2 2 2 2 1 1 1 2 2
1 2 2 2 2 2 1 1 1 1 1 1 1 1 1 1 1 1 1 2 2 1 1 1 0 1 1 2 2 2 2 2 1 1 1 2 2 2
1 3 2 2 2 2 1 1 1 1 0 1 1 1 1 1 1 1 1 2 2 1 1 1 0 1 2 3 2 2 2 2 1 1 2 2 3 2
2 2 2 1 1 1 1 1 1 0 0 1 1 1 1 1 1 2 2 2 2 2 1 1 1 1 2 3 3 3 4 3 2 2 2 2 2 2
2 1 1 1 1 1 1 1 1 1 0 1 1 2 1 1 2 2 2 2 2 1 1 1 1 2 2 1 2 2 2 3 3 3 3 3 3 3
1 1 1 1 0 0 0 1 1 1 1 1 1 1 2 2 3 2 2 2 2 2 2 1 1 1 1 2 3 3 3 3 3 4 5 5 3 3
1 1 1 1 0 0 1 1 1 1 1 1 1 1 2 2 2 2 2 2 2 2 2 2 2 2 2 2 3 3 4 3 2 2 3 4 7 8
Wind_Direction
264 270 264 276 278 275 276 260 232 257 274 255 248 208 172 141 150 167 173 180 187 190 189 192 199 204 202 201 202 212 222 234 235 232 234 231 234 237
251 281 285 290 301 293 289 288 258 243 264 270 265 248 172 199 170 177 183 179 185 189 191 195 199 206 202 202 201 205 210 218 228 227 225 220 218 226
268 276 279 290 305 309 305 296 275 247 253 274 284 277 175 211 177 200 191 180 186 194 193 197 198 201 204 204 205 205 206 209 217 225 227 220 213 215
253 281 294 296 301 307 308 300 287 272 246 266 276 246 219 202 189 211 219 205 186 186 191 193 197 200 202 205 206 206 206 208 212 220 225 217 214 217
255 259 282 299 311 313 310 308 307 301 256 240 262 253 259 268 208 245 236 245 212 182 190 195 195 198 200 203 206 205 203 203 205 207 210 210 209 210
259 267 284 289 305 308 305 309 305 302 296 266 245 235 213 238 215 259 273 269 244 209 192 183 189 199 203 203 202 202 204 204 202 202 204 203 205 206
252 247 271 87 41 358 323 325 321 315 306 291 262 274 151 164 261 261 256 252 233 218 211 182 182 195 204 212 209 201 198 204 205 204 206 206 205 206
251 260 227 173 112 59 333 338 338 311 310 305 289 265 244 246 269 266 271 277 264 255 233 235 186 200 199 191 194 195 199 204 205 204 206 207 206 207
260 250 273 264 179 210 252 275 312 295 259 239 255 259 254 261 277 283 288 277 260 250 237 265 226 224 216 194 186 192 199 204 208 207 208 212 212 213
235 228 238 239 294 292 275 286 283 302 287 272 256 261 259 272 271 271 258 253 238 247 214 245 252 246 246 192 188 192 200 205 210 211 211 216 219 220
235 238 220 204 264 246 241 255 266 278 318 29 207 216 228 258 265 293 287 271 264 256 233 231 247 240 226 219 211 198 195 201 210 215 216 217 221 223
224 215 205 220 249 239 238 246 251 261 260 268 253 241 232 234 231 227 250 265 263 253 245 240 247 250 249 226 204 191 210 213 214 218 220 221 220 217
242 235 225 185 250 270 264 256 257 268 262 242 236 235 226 214 225 233 235 243 252 251 216 211 259 271 245 256 228 208 198 190 193 220 225 222 211 207
255 254 239 229 284 287 271 267 274 266 255 248 251 247 238 228 234 236 233 248 248 237 233 216 240 249 268 272 263 234 207 190 182 195 201 205 212 217
280 280 282 277 271 266 251 264 265 249 246 251 252 251 226 229 232 234 232 245 257 252 237 227 232 249 255 264 264 250 240 222 195 192 193 188 191 192
306 308 301 283 272 263 263 256 241 248 262 267 268 268 272 248 236 240 254 250 259 265 244 231 232 235 250 261 260 265 256 240 242 220 199 205 201 190
300 270 261 259 257 254 256 266 261 249 263 289 298 306 296 275 294 336 315 289 263 267 268 245 225 214 229 254 255 255 249 248 235 235 245 249 233 208
256 256 251 250 264 264 256 252 265 265 289 313 310 295 290 283 288 290 275 283 291 295 299 284 223 281 283 283 253 253 258 270 263 241 244 250 259 243
245 261 264 268 281 287 289 280 275 300 326 322 324 324 314 304 300 296 291 297 300 292 282 276 263 282 296 298 296 281 265 259 255 256 252 253 257 244
246 253 261 266 279 297 296 296 291 292 293 293 306 308 309 308 297 287 287 292 294 295 293 303 303 293 283 290 293 287 260 249 238 247 261 264 262 255
261 262 279 287 294 297 291 296 296 289 295 291 306 314 318 320 306 302 307 306 295 295 303 311 293 287 289 303 294 290 291 264 248 237 248 263 267 263
277 292 309 292 260 295 341 321 322 339 326 297 322 340 330 323 318 320 323 314 298 299 316 327 328 326 312 290 287 286 290 296 280 265 256 240 231 243
313 307 324 340 12 62 36 330 319 330 353 340 350 354 337 329 318 317 319 312 313 328 342 346 339 326 309 291 287 285 285 288 289 295 288 258 238 240